This is the latest recevied weather packets stored in our database for station/object DG4CB-13. If no packets are shown the sender has not sent any weather packets the latest 10 day(s).
| Time | Temp. | Humidity | Pressure | Rain* | Wind** | Luminosity | Snow |
|---|---|---|---|---|---|---|---|
| 1777492800 | 12.78° C | 29% | 1025.9 hPa | - | - | - | - |
| 1777492200 | 13.33° C | 28% | 1025.8 hPa | - | - | - | - |
| 1777491600 | 13.33° C | 28% | 1025.6 hPa | - | - | - | - |
| 1777491000 | 13.89° C | 28% | 1025.4 hPa | - | - | - | - |
| 1777490400 | 14.44° C | 27% | 1025.4 hPa | - | - | - | - |
| 1777489800 | 14.44° C | 27% | 1025.1 hPa | - | - | - | - |
| 1777489200 | 15° C | 26% | 1025 hPa | - | - | - | - |
| 1777488600 | 15.56° C | 26% | 1024.9 hPa | - | - | - | - |
| 1777488000 | 16.67° C | 26% | 1024.7 hPa | - | - | - | - |
| 1777487400 | 17.22° C | 27% | 1024.6 hPa | - | - | - | - |
| 1777486800 | 17.78° C | 26% | 1024.4 hPa | - | - | - | - |
| 1777486200 | 18.33° C | 23% | 1024.3 hPa | - | - | - | - |
| 1777485600 | 18.89° C | 23% | 1024.2 hPa | - | - | - | - |
| 1777485000 | 19.44° C | 23% | 1024.3 hPa | - | - | - | - |
| 1777484400 | 18.89° C | 23% | 1024.2 hPa | - | - | - | - |
| 1777483800 | 18.89° C | 23% | 1024.1 hPa | - | - | - | - |
| 1777483200 | 18.89° C | 23% | 1024 hPa | - | - | - | - |
| 1777482600 | 19.44° C | 22% | 1023.8 hPa | - | - | - | - |
| 1777482000 | 20° C | 23% | 1023.9 hPa | - | - | - | - |
| 1777481400 | 20° C | 23% | 1023.8 hPa | - | - | - | - |
| 1777480800 | 20° C | 23% | 1023.8 hPa | - | - | - | - |
| 1777480200 | 20° C | 22% | 1023.7 hPa | - | - | - | - |
| 1777479600 | 20.56° C | 25% | 1023.6 hPa | - | - | - | - |
| 1777479000 | 20.56° C | 25% | 1023.5 hPa | - | - | - | - |
| 1777478400 | 20° C | 26% | 1023.5 hPa | - | - | - | - |
* Rain since midnight (hover to see other rain measurements)
** Current wind speed in m/s (hover to see current wind gust speed)